[[{"header":{"parameterUnit":"m.s-1","parameterCategory":2,"la1":30.2991,"la2":30.254,"lo1":-89.0895,"lo2":-89.0444,"dy":0.0017,"dx":0.0017,"nx":28,"ny":28,"refTime":"2023-10-05T09:00:00:Z","depth":"0","parameterNumber":2,"parameterNumberName":"U-component_of_CURRENTS"},"data":[0,0,0,0,0,0,0,0,0,0,0,0,0,0,0,0,0,0,0,0,0,0,0,0,0,0,0,0,0,0,0,0,0,0,0,0,0,0,0,0,0,0,0,0,0,0,0,0,0,0,0,0,0,0,0,0,0,0,0.3986,0.3986,0,0.3979,0.3979,0.3979,0.3988,0.3989,0.3989,0.3989,0.3963,0.3962,0.3962,0,0,0,0,0,0,0,0,0,0,0,0,0,0.4055,0.4054,0.3986,0.3986,0.3986,0.3979,0.3979,0.3979,0.3988,0.3989,0.3989,0.3989,0.3964,0.3963,0.3962,0,0,0,0,0,0,0,0,0,0,0,0,0,0.4035,0.4053,0.3986,0.3989,0.3989,0.3979,0.3979,0.3979,0.3988,0.3989,0.3989,0.3989,0.3964,0.3963,0.3961,0.3947,0,0,0.3957,0.3957,0,0,0,0,0,0,0,0,0.4036,0.4033,0.3988,0.3988,0.3988,0.3984,0.3994,0.3967,0.3988,0.399,0.3989,0.3989,0.3967,0.3966,0.3966,0.3946,0.3945,0.3957,0.3956,0.3956,0.3956,0,0,0,0,0,0,0,0.4038,0.4034,0.3985,0.3988,0.3988,0.4006,0.4003,0.3989,0.3978,0.399,0.399,0.3987,0.3967,0.3967,0.3965,0.3944,0.3957,0.3956,0.3955,0.3955,0.3958,0.3959,0,0,0,0,0,0,0.4033,0.4034,0.3985,0.3985,0.4012,0.4004,0.4001,0.3986,0.3978,0.3977,0.3987,0.3987,0.3969,0.3967,0.3964,0.3978,0.3956,0.3955,0.3954,0.3957,0.3958,0.3959,0,0,0,0,0,0,0.4034,0.4028,0.3985,0.4009,0.4005,0.4002,0.3985,0.3986,0.3992,0.3976,0.3975,0.3994,0.397,0.3966,0.3959,0.3976,0.3954,0.3953,0.3956,0.3957,0.3959,0.3984,0,0,0,0,0,0,0.4036,0.4028,0.4021,0.4008,0.4003,0.3982,0.3985,0.3985,0.3989,0.399,0.3981,0.3979,0.3969,0.3961,0.3958,0.3973,0.3952,0.3955,0.3957,0.3958,0.3982,0.3986,0.399,0,0,0,0,0,0.4038,0.4011,0.402,0.4015,0.3991,0.3982,0.3981,0.3982,0.3989,0.399,0.3987,0.3979,0.397,0.396,0.3956,0.3972,0.3954,0.3956,0.3958,0.3981,0.3986,0.399,0,0,0,0,0,0,0.4024,0.4009,0.4019,0.3987,0.3992,0.3983,0.3974,0.3986,0.3986,0.3983,0.3979,0.3976,0.3989,0.3971,0.3961,0.398,0.3965,0.3967,0.3984,0.3988,0.3992,0.3997,0.3951,0,0,0,0,0,0.4022,0.4004,0.4003,0.3978,0.3978,0.3983,0.3982,0.3986,0.3981,0.3982,0.3976,0.3976,0.3992,0.3982,0.3989,0.3978,0.3992,0.3991,0.3994,0.3998,0.4001,0.4047,0.4055,0.3965,0.3965,0.3965,0,0,0.4014,0.3998,0.3991,0.3976,0.3975,0.3962,0.3982,0.3974,0.3973,0.3977,0.3967,0.3992,0.3998,0.4005,0.4007,0.3988,0.403,0.4,0.4003,0.4004,0.405,0.4058,0.4066,0.3967,0.3967,0.3966,0,0,0.397,0.3971,0.3943,0.3942,0.3938,0.3947,0.3948,0.3948,0.3961,0.3961,0.3982,0.4015,0.4003,0.4026,0.4035,0.4058,0.4062,0.4061,0.4064,0.4109,0.4116,0.4123,0.4149,0.4158,0.4046,0.4046,0.4046,0,0.3968,0.3918,0.3936,0.3906,0.3897,0.3939,0.3912,0.3933,0.3935,0.3956,0.3957,0.4014,0.4019,0.406,0.4073,0.4068,0.4086,0.4045,0.4114,0.4121,0.4128,0.4152,0.4162,0.4047,0.4047,0.4047,0.4047,0,0.3899,0.3869,0.3848,0.383,0.3833,0.3814,0.3846,0.3867,0.3896,0.3929,0.3988,0.4017,0.4052,0.407,0.4075,0.4133,0.4129,0.4128,0.4102,0.4139,0.4162,0.4172,0.4049,0.4049,0.4048,0.4048,0,0,0.3858,0.3814,0.3803,0.3787,0.3789,0.3784,0.3801,0.3838,0.3877,0.3916,0.3963,0.4021,0.407,0.4085,0.4116,0.4154,0.4221,0.4155,0.4157,0.418,0.431,0.4203,0.4203,0.4233,0.4235,0.4237,0.4306,0,0.3799,0.3729,0.3723,0.3679,0.3653,0.37,0.3718,0.377,0.3837,0.3901,0.3984,0.4045,0.4066,0.4101,0.4147,0.4217,0.4248,0.4201,0.4272,0.4274,0.4174,0.4211,0.4103,0.4146,0.4315,0.4317,0.4318,0,0.3729,0.3687,0.3632,0.3614,0.361,0.3605,0.3668,0.3693,0.3814,0.3871,0.3964,0.4039,0.4128,0.4135,0.4259,0.4228,0.4266,0.4311,0.4314,0.4211,0.4185,0.4138,0.4157,0.4094,0.4333,0.4332,0.4331,0,0.3695,0.3625,0.3583,0.3572,0.3569,0.3572,0.3589,0.369,0.3742,0.3869,0.3931,0.4049,0.4114,0.4197,0.4285,0.4281,0.4408,0.441,0.4347,0.4339,0.4257,0.4238,0.422,0.4482,0.4482,0.4482,0.4481,0,0.3639,0.3595,0.3564,0.3545,0.3516,0.3534,0.3565,0.3619,0.3725,0.3799,0.3915,0.4001,0.4135,0.4226,0.4295,0.4344,0.4412,0.4355,0.4353,0.426,0.4241,0.4189,0.4148,0.4484,0.4484,0.4483,0.4483,0,0.3608,0.3587,0.3537,0.3512,0.3504,0.3494,0.3529,0.3563,0.3673,0.3773,0.3814,0.3981,0.41,0.4206,0.4344,0.4337,0.4287,0.4398,0.4264,0.4244,0.4093,0.4056,0.3834,0.3721,0.4343,0.4341,0.4339,0,0.3575,0.3551,0.3516,0.3484,0.3465,0.3455,0.3452,0.3534,0.3579,0.3765,0.3801,0.3955,0.4064,0.4204,0.4239,0.4309,0.421,0.4196,0.4159,0.4065,0.4027,0.3845,0.3754,0.4075,0.4071,0.4068,0.4065,0,0.3512,0.3522,0.3491,0.3427,0.3397,0.3377,0.338,0.3415,0.353,0.3619,0.3756,0.3871,0.4021,0.4052,0.4102,0.4135,0.3989,0.4128,0.4088,0.3849,0.3597,0.3493,0.4042,0.4037,0.404,0.4042,0.4043,0.4044,0.3468,0.344,0.3407,0.3326,0.3299,0.3267,0.3231,0.3279,0.3339,0.3434,0.3622,0.3718,0.3861,0.3941,0.3922,0.3829,0.3791,0.3764,0.3743,0.3579,0.34,0.3856,0.3803,0.3804,0.3806,0.3807,0.3808,0,0.3356,0.3332,0.3282,0.3192,0.3108,0.3138,0.3136,0.3096,0.311,0.3268,0.3368,0.3513,0.3549,0.363,0.3633,0.3505,0.3338,0.341,0.3189,0.3134,0.3624,0.3547,0.3366,0.3366,0.3366,0.3366,0.3366,0.3366,0.3293,0.3204,0.3163,0.2984,0.2932,0.2817,0.2794,0.2794,0.2863,0.2928,0.3006,0.3129,0.3358,0.3438,0.3355,0.3272,0.3044,0.2867,0.2841,0.3287,0.332,0.3351,0.3272,0.3035,0.3035,0.225,0.2244,0.224]},{"header":{"parameterUnit":"m.s-1","parameterCategory":2,"la1":30.2991,"la2":30.254,"lo1":-89.0895,"lo2":-89.0444,"dy":0.0017,"dx":0.0017,"nx":28,"ny":28,"refTime":"2023-10-05T09:00:00:Z","depth":"0","parameterNumber":3,"parameterNumberName":"V-component_of_CURRENTS"},"data":[0,0,0,0,0,0,0,0,0,0,0,0,0,0,0,0,0,0,0,0,0,0,0,0,0,0,0,0,0,0,0,0,0,0,0,0,0,0,0,0,0,0,0,0,0,0,0,0,0,0,0,0,0,0,0,0,0,0,-0.0116,-0.0116,0,-0.0162,-0.0164,-0.0165,-0.0222,-0.0223,-0.0223,-0.0223,-0.0308,-0.031,-0.0312,0,0,0,0,0,0,0,0,0,0,0,0,0,-0.0155,-0.0154,-0.0116,-0.0116,-0.0116,-0.0162,-0.0164,-0.0165,-0.0222,-0.0223,-0.0223,-0.0223,-0.0308,-0.031,-0.0313,0,0,0,0,0,0,0,0,0,0,0,0,0,-0.0169,-0.0154,-0.0116,-0.0146,-0.0148,-0.0162,-0.0164,-0.0165,-0.0222,-0.0223,-0.0223,-0.0224,-0.0307,-0.031,-0.0313,-0.0321,0,0,-0.0322,-0.0323,0,0,0,0,0,0,0,0,-0.0168,-0.0169,-0.0141,-0.0144,-0.0147,-0.0181,-0.0208,-0.0217,-0.0222,-0.0201,-0.0223,-0.0224,-0.0265,-0.0271,-0.0288,-0.0325,-0.0329,-0.0322,-0.0324,-0.0325,-0.0326,0,0,0,0,0,0,0,-0.0167,-0.0167,-0.0141,-0.0141,-0.0144,-0.0183,-0.0185,-0.0211,-0.0235,-0.0203,-0.0206,-0.02,-0.0268,-0.0285,-0.029,-0.033,-0.0322,-0.0325,-0.0326,-0.0328,-0.0383,-0.0383,0,0,0,0,0,0,-0.0144,-0.0166,-0.014,-0.0142,-0.0152,-0.0181,-0.0184,-0.0175,-0.0234,-0.0242,-0.02,-0.0203,-0.0279,-0.0287,-0.0293,-0.0285,-0.0325,-0.0328,-0.033,-0.0384,-0.0383,-0.0383,0,0,0,0,0,0,-0.0144,-0.0141,-0.0138,-0.015,-0.0152,-0.0178,-0.0169,-0.0176,-0.0186,-0.023,-0.024,-0.0201,-0.028,-0.0289,-0.0308,-0.0289,-0.0329,-0.0332,-0.0384,-0.0383,-0.0383,-0.0282,0,0,0,0,0,0,-0.0145,-0.0141,-0.0133,-0.0148,-0.015,-0.013,-0.0168,-0.0176,-0.0179,-0.0183,-0.0235,-0.0244,-0.0281,-0.0303,-0.0311,-0.0294,-0.0334,-0.0384,-0.0384,-0.0383,-0.0285,-0.0278,-0.0271,0,0,0,0,0,-0.0146,-0.0119,-0.0133,-0.013,-0.0136,-0.0128,-0.0133,-0.0159,-0.0178,-0.0173,-0.0212,-0.0242,-0.0306,-0.0305,-0.0314,-0.0298,-0.0385,-0.0384,-0.0383,-0.0289,-0.0279,-0.0272,0,0,0,0,0,0,-0.0131,-0.0122,-0.0137,-0.011,-0.0114,-0.0135,-0.0124,-0.0149,-0.0176,-0.0179,-0.0234,-0.0245,-0.026,-0.0293,-0.0291,-0.0315,-0.0351,-0.0353,-0.0276,-0.0268,-0.0261,-0.0226,-0.0337,0,0,0,0,0,-0.0123,-0.0099,-0.0106,-0.0083,-0.0077,-0.0103,-0.0105,-0.0121,-0.0141,-0.0154,-0.0193,-0.0234,-0.0266,-0.0276,-0.0313,-0.0317,-0.0339,-0.0316,-0.0309,-0.0302,-0.0282,-0.0311,-0.0304,-0.0381,-0.0381,-0.0381,0,0,-0.0113,-0.0101,-0.0091,-0.0079,-0.0082,-0.0058,-0.0106,-0.0091,-0.008,-0.0158,-0.0158,-0.0211,-0.0264,-0.0275,-0.0284,-0.0297,-0.029,-0.0301,-0.0295,-0.0278,-0.031,-0.0302,-0.0295,-0.038,-0.038,-0.038,0,0,-0.0062,-0.0064,-0.0026,-0.0018,-0.0006,-0.002,-0.0009,-0.0026,-0.0041,-0.0047,-0.0107,-0.0143,-0.0185,-0.0222,-0.0244,-0.0219,-0.0257,-0.0236,-0.0162,-0.0191,-0.0185,-0.0179,-0.018,-0.0175,-0.0225,-0.0225,-0.0225,0,-0.0055,-0.0002,-0.0016,0.0028,0.0048,0.0007,0.0052,0.0035,0.0007,0.0002,-0.0029,-0.0105,-0.0156,-0.017,-0.0166,-0.02,-0.0214,-0.0186,-0.0179,-0.0174,-0.017,-0.0173,-0.0169,-0.022,-0.0221,-0.0221,-0.0222,0,0.0029,0.0065,0.0097,0.0136,0.0149,0.0186,0.0171,0.0167,0.0141,0.0115,0.0089,0.0011,-0.0031,-0.0061,-0.0103,-0.0103,-0.0121,-0.017,-0.0193,-0.0156,-0.0162,-0.016,-0.0213,-0.0215,-0.0216,-0.0218,0,0,0.0068,0.0138,0.015,0.0187,0.0214,0.0237,0.0262,0.0273,0.0292,0.0236,0.0252,0.0173,0.0119,0.0088,0.0016,-0.0011,-0.0002,-0.0066,-0.007,-0.005,-0.0038,-0.0047,-0.0046,-0.0049,-0.0049,-0.0048,-0.0047,0,0.0138,0.0237,0.0254,0.0341,0.0391,0.0375,0.0404,0.04,0.038,0.0378,0.0293,0.027,0.018,0.0157,0.0117,0.0022,0.0006,0.0004,-0.009,-0.0092,-0.0092,-0.0044,-0.0002,0.0003,-0.0045,-0.0045,-0.0044,0,0.0217,0.028,0.0377,0.0451,0.0472,0.0511,0.0554,0.0575,0.0555,0.0538,0.0497,0.0422,0.0368,0.028,0.0171,0.0175,0.009,0.0015,0.0012,-0.0027,-0.0097,-0.0047,0.0008,-0.0136,-0.0041,-0.0042,-0.0042,0,0.0258,0.0363,0.0444,0.0473,0.0545,0.0584,0.0615,0.0622,0.0655,0.0637,0.0648,0.0562,0.0528,0.0405,0.0247,0.0213,0.0135,0.006,-0.0022,-0.0023,-0.002,-0.0022,-0.0101,-0.0002,-0.0002,-0.0002,-0.0002,0,0.0326,0.0395,0.0472,0.0522,0.0625,0.0647,0.0737,0.0749,0.0779,0.0841,0.0731,0.0753,0.0557,0.0475,0.0316,0.0175,0.0188,0.0017,-0.0019,0.0016,0.0018,-0.0137,-0.0235,-0.0002,-0.0002,-0.0002,-0.0002,0,0.0357,0.0405,0.0508,0.0607,0.0648,0.0718,0.0829,0.0889,0.09,0.0979,0.0978,0.0911,0.0816,0.0621,0.044,0.0281,0.0049,0.007,0.0142,0.0113,-0.0117,-0.0209,-0.0321,-0.0396,-0.0014,-0.0014,-0.0015,0,0.0381,0.0438,0.0569,0.0644,0.07,0.0809,0.089,0.0945,0.1022,0.1086,0.1134,0.1067,0.1059,0.0794,0.0507,0.0261,0.0079,0.0108,0.0033,-0.0096,-0.0227,-0.0298,-0.0359,0.0084,0.0085,0.0085,0.0086,0,0.0441,0.0478,0.0565,0.0718,0.0826,0.0947,0.1072,0.1152,0.1232,0.1318,0.1419,0.1421,0.1178,0.0965,0.0605,0.0399,0.0014,0.0111,-0.0046,-0.0162,-0.0221,-0.0319,0.0061,0.0091,0.009,0.009,0.0089,0.0089,0.0482,0.0551,0.0665,0.0811,0.0933,0.1083,0.1191,0.1335,0.1494,0.1648,0.1641,0.1709,0.1378,0.0902,0.0594,0.0081,0.0043,-0.0079,-0.0177,-0.0235,-0.0318,0.0089,0.008,0.0079,0.0079,0.0079,0.0078,0,0.0553,0.0634,0.0762,0.0932,0.1066,0.1123,0.1315,0.1439,0.1654,0.1825,0.1937,0.187,0.1439,0.0955,0.0279,-0.0114,-0.0282,-0.0337,-0.043,-0.0481,-0.0125,-0.0132,-0.016,-0.016,-0.0159,-0.0159,-0.0159,-0.0159,0.0599,0.0725,0.0793,0.1022,0.1138,0.1319,0.1432,0.1634,0.1802,0.2055,0.2165,0.2202,0.1895,0.0673,-0.0172,-0.0399,-0.067,-0.0727,-0.0886,-0.0649,-0.0632,-0.0617,-0.0646,-0.0781,-0.0782,-0.1178,-0.1182,-0.1185]}],[{"header":{"parameterUnit":"m.s-1","parameterCategory":2,"la1":30.2991,"la2":30.254,"lo1":-89.0895,"lo2":-89.0444,"dy":0.0017,"dx":0.0017,"nx":28,"ny":28,"refTime":"2023-10-05T09:00:00:Z","depth":"2","parameterNumber":2,"parameterNumberName":"U-component_of_CURRENTS"},"data":[0,0,0,0,0,0,0,0,0,0,0,0,0,0,0,0,0,0,0,0,0,0,0,0,0,0,0,0,0,0,0,0,0,0,0,0,0,0,0,0,0,0,0,0,0,0,0,0,0,0,0,0,0,0,0,0,0,0,0.279,0.2791,0,0.2776,0.2775,0.2775,0.2791,0.2792,0.2793,0.2794,0.2857,0.2857,0.2858,0,0,0,0,0,0,0,0,0,0,0,0,0,0.2744,0.2745,0.279,0.2791,0.2791,0.2776,0.2775,0.2774,0.279,0.2792,0.2793,0.2794,0.2856,0.2857,0.2858,0,0,0,0,0,0,0,0,0,0,0,0,0,0.2746,0.2746,0.279,0.2801,0.2802,0.2776,0.2775,0.2774,0.279,0.2792,0.2793,0.2795,0.2856,0.2857,0.2858,0.2831,0,0,0.2861,0.2862,0,0,0,0,0,0,0,0,0.2746,0.2747,0.2799,0.28,0.2802,0.2791,0.2782,0.2799,0.279,0.2789,0.2794,0.2796,0.2844,0.2846,0.2831,0.2834,0.2837,0.2861,0.2862,0.2862,0.2862,0,0,0,0,0,0,0,0.2746,0.2747,0.2779,0.2799,0.2801,0.2777,0.2779,0.2784,0.2805,0.2789,0.2792,0.2798,0.2845,0.283,0.2833,0.2838,0.2861,0.2862,0.2863,0.2863,0.2928,0.2929,0,0,0,0,0,0,0.2761,0.2747,0.278,0.2779,0.2783,0.2777,0.2779,0.2789,0.2803,0.2808,0.2797,0.2799,0.2828,0.2832,0.2836,0.2898,0.2862,0.2863,0.2864,0.2927,0.2928,0.293,0,0,0,0,0,0,0.276,0.2764,0.278,0.2767,0.2768,0.2777,0.2787,0.2788,0.2798,0.2809,0.2814,0.2811,0.2829,0.2834,0.2877,0.2897,0.2864,0.2864,0.2926,0.2927,0.2929,0.2963,0,0,0,0,0,0,0.2759,0.2764,0.2769,0.2768,0.277,0.279,0.2786,0.2786,0.2801,0.2804,0.2823,0.2828,0.2831,0.2876,0.2878,0.2898,0.2865,0.2924,0.2926,0.2928,0.2961,0.2966,0.297,0,0,0,0,0,0.2757,0.2756,0.2769,0.2773,0.2779,0.2792,0.279,0.2797,0.28,0.2811,0.2833,0.2829,0.2891,0.2878,0.288,0.2901,0.2923,0.2926,0.2928,0.2959,0.2965,0.297,0,0,0,0,0,0,0.2738,0.2759,0.2773,0.2779,0.28,0.2797,0.2799,0.2807,0.2825,0.2835,0.2843,0.285,0.2899,0.2894,0.2879,0.2927,0.2906,0.2909,0.2928,0.2934,0.2939,0.2953,0.2866,0,0,0,0,0,0.2738,0.2746,0.277,0.2779,0.2789,0.2798,0.2801,0.2815,0.2832,0.2841,0.2857,0.2877,0.2902,0.2916,0.2936,0.2956,0.2967,0.2971,0.2976,0.298,0.2994,0.3034,0.3044,0.2938,0.2938,0.2938,0,0,0.273,0.2746,0.2749,0.2776,0.2785,0.2804,0.2803,0.2823,0.2846,0.2846,0.2881,0.29,0.2915,0.2948,0.2967,0.295,0.3015,0.2984,0.2987,0.2999,0.3038,0.3048,0.3057,0.294,0.2939,0.2939,0,0,0.2724,0.2739,0.2749,0.2771,0.2805,0.2813,0.2829,0.2848,0.2867,0.2902,0.2915,0.2953,0.2975,0.2995,0.3006,0.3047,0.3046,0.305,0.3077,0.3115,0.3125,0.3133,0.3153,0.3163,0.3043,0.3043,0.3043,0,0.2721,0.2737,0.2754,0.2778,0.2796,0.2824,0.2847,0.2865,0.29,0.2923,0.2928,0.2985,0.2999,0.3044,0.3063,0.3059,0.3076,0.3052,0.3122,0.3131,0.3138,0.3158,0.3168,0.3045,0.3045,0.3045,0.3045,0,0.2727,0.2747,0.2755,0.2797,0.2819,0.2843,0.2882,0.2913,0.2938,0.2961,0.3023,0.3044,0.308,0.3087,0.3089,0.3149,0.3141,0.313,0.3106,0.3151,0.3168,0.3178,0.3048,0.3047,0.3047,0.3046,0,0,0.2705,0.2751,0.2755,0.2778,0.2834,0.2851,0.2901,0.295,0.2987,0.3028,0.3074,0.3122,0.314,0.3155,0.3163,0.3194,0.3259,0.3188,0.3189,0.3207,0.3339,0.3286,0.3292,0.3263,0.3265,0.3267,0.3326,0,0.271,0.2744,0.2771,0.281,0.2832,0.288,0.292,0.2973,0.3022,0.3075,0.3115,0.3166,0.3163,0.3188,0.3222,0.3259,0.329,0.3244,0.3295,0.3297,0.3243,0.3303,0.3041,0.3069,0.3336,0.3338,0.3339,0,0.2705,0.2733,0.2766,0.2821,0.2836,0.2868,0.2943,0.2987,0.3072,0.3113,0.3175,0.3209,0.3276,0.326,0.3346,0.3319,0.3339,0.3357,0.3359,0.3307,0.3263,0.3069,0.3077,0.3356,0.3354,0.3353,0.3352,0,0.2668,0.2724,0.2748,0.2769,0.2839,0.2871,0.2915,0.3001,0.3049,0.3148,0.3192,0.3269,0.3318,0.3363,0.3407,0.3387,0.3492,0.346,0.3428,0.3423,0.321,0.3183,0.3522,0.3522,0.3522,0.3522,0.3522,0,0.2651,0.2671,0.2735,0.275,0.2793,0.2854,0.2915,0.2976,0.307,0.313,0.321,0.3274,0.3352,0.3415,0.3436,0.3471,0.3517,0.3454,0.3446,0.3213,0.3188,0.3442,0.3432,0.3524,0.3524,0.3523,0.3523,0,0.26,0.2641,0.2673,0.2748,0.2775,0.2807,0.2905,0.2946,0.3049,0.3132,0.3167,0.33,0.3393,0.3449,0.3534,0.3507,0.3541,0.3536,0.3255,0.3214,0.3435,0.3426,0.3507,0.3505,0.3504,0.3504,0.3503,0,0.257,0.2584,0.2656,0.2676,0.2711,0.2773,0.281,0.2922,0.2972,0.3143,0.3171,0.331,0.338,0.3484,0.3474,0.3494,0.3552,0.3249,0.3165,0.3455,0.344,0.3432,0.3425,0.2888,0.2882,0.2877,0.2874,0,0.2519,0.255,0.2574,0.2618,0.2658,0.2696,0.2765,0.2802,0.2934,0.3004,0.3117,0.3199,0.3323,0.3244,0.3283,0.3256,0.3224,0.3158,0.3539,0.2942,0.2879,0.2861,0.2873,0.2832,0.2836,0.284,0.2842,0.2843,0.2474,0.2476,0.2513,0.254,0.2581,0.2601,0.2592,0.2669,0.2725,0.2801,0.2969,0.2994,0.3051,0.2993,0.2908,0.2837,0.3061,0.2907,0.2917,0.2934,0.2861,0.2801,0.2726,0.2729,0.2732,0.2734,0.2737,0,0.24,0.241,0.2432,0.2446,0.2433,0.25,0.2533,0.2492,0.2495,0.2616,0.2684,0.2517,0.249,0.254,0.2379,0.2383,0.2321,0.2276,0.2165,0.2211,0.225,0.2138,0.1813,0.1809,0.1806,0.1803,0,0,0.2362,0.2338,0.234,0.2286,0.2296,0.2237,0.2223,0.2195,0.2228,0.2207,0.2208,0.2409,0.2496,0.2128,0.2081,0.1917,0.204,0.184,0.2592,0.251,0.2544,0.2638,0.2521,0,0,0,0,0]},{"header":{"parameterUnit":"m.s-1","parameterCategory":2,"la1":30.2991,"la2":30.254,"lo1":-89.0895,"lo2":-89.0444,"dy":0.0017,"dx":0.0017,"nx":28,"ny":28,"refTime":"2023-10-05T09:00:00:Z","depth":"2","parameterNumber":3,"parameterNumberName":"V-component_of_CURRENTS"},"data":[0,0,0,0,0,0,0,0,0,0,0,0,0,0,0,0,0,0,0,0,0,0,0,0,0,0,0,0,0,0,0,0,0,0,0,0,0,0,0,0,0,0,0,0,0,0,0,0,0,0,0,0,0,0,0,0,0,0,0.0334,0.0333,0,0.028,0.028,0.0279,0.0245,0.0244,0.0244,0.0244,0.0153,0.015,0.0148,0,0,0,0,0,0,0,0,0,0,0,0,0,0.0378,0.0377,0.0334,0.0333,0.0333,0.0281,0.028,0.0279,0.0245,0.0244,0.0244,0.0244,0.0153,0.0151,0.0148,0,0,0,0,0,0,0,0,0,0,0,0,0,0.0345,0.0377,0.0334,0.0309,0.0306,0.0281,0.028,0.0279,0.0245,0.0244,0.0244,0.0243,0.0154,0.0151,0.0148,0.0135,0,0,0.0138,0.0136,0,0,0,0,0,0,0,0,0.0347,0.0344,0.0313,0.0311,0.0307,0.0268,0.0262,0.0229,0.0245,0.0268,0.0244,0.0243,0.0188,0.0182,0.0174,0.0131,0.0127,0.0137,0.0135,0.0134,0.0133,0,0,0,0,0,0,0,0.035,0.0346,0.0313,0.0313,0.0309,0.029,0.0286,0.0255,0.023,0.0266,0.0263,0.0257,0.0186,0.0177,0.0171,0.0126,0.0137,0.0135,0.0133,0.0131,0.0063,0.0063,0,0,0,0,0,0,0.0357,0.0348,0.0315,0.0312,0.0326,0.029,0.0285,0.0282,0.0232,0.0224,0.0257,0.0256,0.0183,0.0175,0.0168,0.0156,0.0134,0.0131,0.0129,0.0062,0.0063,0.0063,0,0,0,0,0,0,0.0359,0.0355,0.0317,0.0328,0.0322,0.029,0.0286,0.0281,0.0272,0.0225,0.0217,0.0255,0.0182,0.0172,0.0144,0.0152,0.0129,0.0126,0.0062,0.0063,0.0063,0.0129,0,0,0,0,0,0,0.036,0.0356,0.0358,0.0329,0.0322,0.0306,0.0287,0.028,0.0268,0.0266,0.022,0.0211,0.0181,0.015,0.0141,0.0147,0.0124,0.0062,0.0062,0.0063,0.0127,0.0132,0.0136,0,0,0,0,0,0.0362,0.0368,0.0359,0.0355,0.0326,0.0307,0.0301,0.0277,0.0269,0.0268,0.0238,0.0212,0.0145,0.0147,0.0137,0.0143,0.0062,0.0062,0.0063,0.0125,0.0131,0.0136,0,0,0,0,0,0,0.0385,0.0364,0.0354,0.0352,0.0332,0.0301,0.0298,0.0282,0.0258,0.0256,0.0213,0.0203,0.0181,0.0151,0.0155,0.0123,0.01,0.0098,0.015,0.0155,0.016,0.0181,0.0121,0,0,0,0,0,0.0393,0.0394,0.0366,0.0365,0.0359,0.033,0.032,0.0305,0.0279,0.0268,0.0236,0.0203,0.0175,0.0158,0.0127,0.011,0.0082,0.0106,0.0111,0.0115,0.0124,0.0087,0.009,0.0064,0.0064,0.0064,0,0,0.0399,0.039,0.0389,0.0371,0.0355,0.0355,0.0324,0.0314,0.0314,0.0261,0.0252,0.0217,0.0173,0.0155,0.0143,0.0132,0.0107,0.0115,0.0119,0.0126,0.0088,0.0091,0.0093,0.0064,0.0064,0.0064,0,0,0.0417,0.0408,0.0415,0.0405,0.0387,0.0374,0.0374,0.0345,0.0334,0.0317,0.0283,0.0254,0.0209,0.0183,0.0164,0.0173,0.0133,0.0161,0.0201,0.0165,0.0167,0.0169,0.014,0.0138,0.0164,0.0164,0.0164,0,0.0426,0.0434,0.0413,0.0419,0.0421,0.0388,0.0399,0.0383,0.0349,0.0346,0.0322,0.0264,0.0224,0.0207,0.021,0.0185,0.016,0.0186,0.0172,0.0173,0.0173,0.0143,0.0141,0.0167,0.0167,0.0166,0.0166,0,0.0448,0.0457,0.0462,0.0465,0.0463,0.0467,0.0447,0.0442,0.0423,0.0404,0.038,0.0323,0.0292,0.0271,0.0242,0.0229,0.0209,0.0183,0.0163,0.018,0.0147,0.0143,0.0172,0.0171,0.017,0.0169,0,0,0.0465,0.0476,0.048,0.0497,0.0491,0.0496,0.0502,0.0499,0.0514,0.0465,0.0471,0.0411,0.038,0.0356,0.0312,0.0277,0.0253,0.0238,0.0234,0.0217,0.018,0.0165,0.0159,0.0225,0.0225,0.0225,0.0157,0,0.049,0.0524,0.052,0.0558,0.0576,0.0562,0.0576,0.057,0.0555,0.0552,0.0489,0.0473,0.0413,0.04,0.0356,0.0282,0.0246,0.0274,0.0158,0.0155,0.0146,0.0155,0.0178,0.012,0.0153,0.0152,0.0152,0,0.0515,0.0539,0.0583,0.0621,0.0628,0.0648,0.0679,0.0687,0.067,0.0657,0.0624,0.0573,0.052,0.0463,0.0345,0.0367,0.0283,0.0217,0.0212,0.0175,0.0133,0.0105,0.0111,0.0145,0.0145,0.0146,0.0146,0,0.0552,0.0586,0.0631,0.0642,0.0674,0.0698,0.0717,0.0721,0.0746,0.0728,0.0736,0.0657,0.0628,0.0509,0.037,0.0357,0.0238,0.02,0.0107,0.0105,0.009,0.0088,0.0116,0.0116,0.0117,0.0117,0.0117,0,0.0587,0.0621,0.0655,0.0684,0.0747,0.075,0.0814,0.0819,0.0838,0.0884,0.0798,0.0809,0.0638,0.0546,0.0404,0.0251,0.026,0.012,0.0088,0.0114,0.0114,0.0106,0.0106,0.0114,0.0115,0.0115,0.0116,0,0.0619,0.0638,0.0695,0.0746,0.0769,0.0817,0.0888,0.0933,0.0938,0.0995,0.0993,0.0925,0.0812,0.0631,0.0447,0.031,0.0153,0.0095,0.0141,0.0116,0.0034,0.0038,-0.0017,-0.0018,-0.0019,-0.002,-0.002,0,0.0636,0.0671,0.0749,0.0794,0.0822,0.0893,0.0949,0.0984,0.1042,0.1074,0.111,0.102,0.098,0.0699,0.0446,0.0199,0.0159,0.0048,0.0021,0.0047,0.0021,0.0026,0.0031,0.0025,0.0025,0.0025,0.0024,0,0.0675,0.0705,0.0758,0.0853,0.0924,0.1008,0.1091,0.1154,0.1208,0.1259,0.1309,0.1278,0.1024,0.0784,0.0439,0.0267,0.0086,0.0036,0.005,0.0059,0.0082,0.0058,0.0062,0.0023,0.0023,0.0023,0.0023,0.0023,0.0705,0.075,0.0825,0.0915,0.1001,0.1113,0.1194,0.129,0.1401,0.1483,0.1456,0.1414,0.1139,0.0705,0.0402,0.0077,0.0095,-0.0029,-0.0026,-0.0024,-0.0003,0.0017,-0.005,-0.005,-0.005,-0.0051,-0.0051,0,0.074,0.0796,0.0881,0.0994,0.109,0.1135,0.1283,0.1369,0.1512,0.1579,0.162,0.1356,0.1081,0.0748,0.0277,0.0,-0.0026,-0.0101,-0.0068,-0.0063,-0.006,-0.004,-0.0098,-0.0099,-0.01,-0.0101,0,0,0.076,0.0842,0.0887,0.1045,0.113,0.1272,0.1362,0.1497,0.1583,0.1654,0.1632,0.1577,0.1184,0.0834,0.0455,0.0178,0.0118,0.0117,0.0187,0.0277,0.0283,0.0016,0.0056,0,0,0,0,0]}],[{"header":{"parameterUnit":"m.s-1","parameterCategory":2,"la1":30.2991,"la2":30.254,"lo1":-89.0895,"lo2":-89.0444,"dy":0.0017,"dx":0.0017,"nx":28,"ny":28,"refTime":"2023-10-05T09:00:00:Z","depth":"4","parameterNumber":2,"parameterNumberName":"U-component_of_CURRENTS"},"data":[0,0,0,0,0,0,0,0,0,0,0,0,0,0,0,0,0,0,0,0,0,0,0,0,0,0,0,0,0,0,0,0,0,0,0,0,0,0,0,0,0,0,0,0,0,0,0,0,0,0,0,0,0,0,0,0,0,0,0.1712,0.1713,0,0.1778,0.1779,0.1779,0.1826,0.1826,0.1827,0.1827,0.1871,0.1872,0.1873,0,0,0,0,0,0,0,0,0,0,0,0,0,0.1621,0.1623,0.1712,0.1713,0.1714,0.1778,0.1779,0.178,0.1826,0.1826,0.1827,0.1828,0.1871,0.1872,0.1873,0,0,0,0,0,0,0,0,0,0,0,0,0,0.167,0.1623,0.1712,0.1745,0.1749,0.1778,0.1779,0.178,0.1826,0.1826,0.1827,0.1828,0.1871,0.1872,0.1873,0.1865,0,0,0.1876,0.1877,0,0,0,0,0,0,0,0,0.1667,0.1673,0.174,0.1743,0.1747,0.1796,0.1763,0.1808,0.1826,0.1795,0.1827,0.1828,0.1844,0.1847,0.1857,0.1867,0.1869,0.1876,0.1877,0.1877,0.1878,0,0,0,0,0,0,0,0.1664,0.1671,0.1737,0.174,0.1745,0.1756,0.1764,0.1772,0.1813,0.1798,0.1802,0.1811,0.1846,0.1856,0.1858,0.187,0.1876,0.1877,0.1878,0.1878,0.1968,0.197,0,0,0,0,0,0,0.1658,0.1668,0.1735,0.1739,0.171,0.1757,0.1766,0.1778,0.1814,0.1821,0.181,0.1813,0.1853,0.1857,0.186,0.1939,0.1877,0.1878,0.1879,0.1967,0.1969,0.1971,0,0,0,0,0,0,0.1656,0.1663,0.1732,0.1705,0.1715,0.1758,0.1772,0.1779,0.1827,0.1824,0.183,0.1855,0.1854,0.1858,0.1899,0.1937,0.1879,0.188,0.1964,0.1967,0.197,0.2041,0,0,0,0,0,0,0.1653,0.1662,0.1689,0.1705,0.1716,0.177,0.1772,0.178,0.183,0.1835,0.1863,0.1866,0.1855,0.1898,0.19,0.1938,0.1881,0.1962,0.1966,0.1969,0.2037,0.2046,0.2054,0,0,0,0,0,0.1649,0.1676,0.169,0.1699,0.1745,0.1771,0.1779,0.181,0.1832,0.1856,0.1879,0.1867,0.192,0.19,0.1903,0.1941,0.1961,0.1965,0.1969,0.2033,0.2044,0.2054,0,0,0,0,0,0,0.1652,0.1684,0.1699,0.1736,0.1763,0.178,0.1816,0.1834,0.1873,0.1891,0.1887,0.1891,0.1944,0.1933,0.1911,0.1978,0.194,0.1944,0.1988,0.1998,0.2007,0.202,0.1882,0,0,0,0,0,0.1664,0.1697,0.172,0.1755,0.1773,0.1803,0.1827,0.1848,0.1874,0.1895,0.1913,0.1935,0.1955,0.1971,0.1984,0.2018,0.2018,0.2046,0.2055,0.2062,0.2075,0.2102,0.2114,0.1983,0.1983,0.1983,0,0,0.1676,0.1699,0.172,0.1759,0.1788,0.1818,0.1821,0.1869,0.1903,0.1891,0.1957,0.1971,0.1973,0.2014,0.2036,0.2014,0.2102,0.2067,0.2073,0.2083,0.2107,0.212,0.2131,0.1986,0.1986,0.1985,0,0,0.1702,0.1739,0.1772,0.1798,0.1845,0.186,0.1882,0.1922,0.1955,0.2005,0.2011,0.2048,0.208,0.2088,0.2094,0.2159,0.2149,0.217,0.2222,0.2248,0.2259,0.2269,0.2293,0.2305,0.2171,0.2171,0.2171,0,0.1717,0.1756,0.1786,0.1819,0.1849,0.1883,0.1919,0.1953,0.2003,0.2031,0.2039,0.2108,0.2113,0.2157,0.2185,0.2179,0.2195,0.2181,0.2259,0.2269,0.2277,0.23,0.2312,0.2175,0.2175,0.2174,0.2174,0,0.1752,0.1797,0.1822,0.1874,0.191,0.195,0.199,0.2039,0.2083,0.2108,0.218,0.2194,0.2233,0.2243,0.2238,0.2305,0.2298,0.2269,0.2231,0.2295,0.2315,0.2326,0.2181,0.2179,0.2178,0.2177,0,0,0.1748,0.1829,0.1842,0.1875,0.1944,0.197,0.204,0.2096,0.2147,0.2202,0.2262,0.231,0.2331,0.2341,0.2344,0.2371,0.2448,0.2359,0.2359,0.2382,0.2519,0.2369,0.2366,0.2439,0.2441,0.2442,0.2512,0,0.1768,0.1831,0.1872,0.1942,0.1975,0.2033,0.209,0.215,0.2206,0.2271,0.2308,0.2367,0.2363,0.2398,0.2428,0.2446,0.2479,0.2432,0.2457,0.2458,0.2314,0.2374,0.2449,0.252,0.2522,0.2524,0.2525,0,0.178,0.1823,0.189,0.1972,0.1996,0.205,0.2147,0.2201,0.2291,0.2341,0.2409,0.2437,0.2509,0.2486,0.2561,0.2538,0.2547,0.2549,0.2551,0.2393,0.2326,0.2441,0.2544,0.2542,0.2541,0.2539,0.2538,0,0.1739,0.1832,0.1886,0.1915,0.2014,0.2072,0.2135,0.223,0.2284,0.2396,0.2446,0.2523,0.2577,0.2608,0.2633,0.2612,0.2697,0.2654,0.2526,0.2516,0.2598,0.2587,0.2702,0.2702,0.2702,0.2702,0.2702,0,0.1717,0.1767,0.1881,0.1909,0.1988,0.2068,0.2159,0.2234,0.234,0.2396,0.2486,0.2536,0.2615,0.2663,0.2669,0.2635,0.2728,0.2551,0.2525,0.2627,0.2619,0.2606,0.2593,0.2705,0.2704,0.2704,0.2703,0,0.1653,0.1729,0.1798,0.1922,0.1969,0.2029,0.2169,0.2219,0.234,0.2419,0.2462,0.2577,0.2641,0.2691,0.2745,0.2663,0.2652,0.2614,0.2745,0.2723,0.2447,0.2438,0.2472,0.2467,0.2463,0.246,0.2457,0,0.1618,0.1651,0.1794,0.184,0.1906,0.201,0.207,0.2208,0.2257,0.2418,0.2435,0.2553,0.2609,0.2564,0.2639,0.2637,0.26,0.2572,0.2488,0.2452,0.2425,0.2422,0.2419,0.2451,0.245,0.2449,0.2448,0,0.155,0.1621,0.1677,0.1775,0.1857,0.1924,0.2026,0.205,0.2191,0.232,0.2346,0.237,0.2436,0.2467,0.2487,0.2479,0.2575,0.253,0.2537,0.2457,0.2427,0.2403,0.2405,0.2434,0.2436,0.2437,0.2438,0,0.1505,0.1528,0.1616,0.1684,0.1778,0.1807,0.1875,0.1927,0.1992,0.2159,0.2171,0.2292,0.2414,0.2389,0.2411,0.2391,0.2344,0.2242,0.2263,0.2279,0.2182,0.2114,0.2013,0,0,0,0,0,0.1446,0.1456,0.1515,0.1575,0.1659,0.1711,0.1824,0.189,0.2028,0.1989,0.2069,0.2118,0.2144,0.2217,0.2156,0.2337,0.2362,0.2256,0.2258,0.2358,0.2374,0.2276,0,0,0,0,0,0,0.1405,0.1456,0.1472,0.1467,0.1484,0.1554,0.1619,0.1712,0.1699,0.1847,0.1876,0.1984,0.2051,0.2152,0.2113,0.2134,0.2089,0.234,0.2334,0.2349,0.2363,0.2376,0.2281,0,0,0,0,0]},{"header":{"parameterUnit":"m.s-1","parameterCategory":2,"la1":30.2991,"la2":30.254,"lo1":-89.0895,"lo2":-89.0444,"dy":0.0017,"dx":0.0017,"nx":28,"ny":28,"refTime":"2023-10-05T09:00:00:Z","depth":"4","parameterNumber":3,"parameterNumberName":"V-component_of_CURRENTS"},"data":[0,0,0,0,0,0,0,0,0,0,0,0,0,0,0,0,0,0,0,0,0,0,0,0,0,0,0,0,0,0,0,0,0,0,0,0,0,0,0,0,0,0,0,0,0,0,0,0,0,0,0,0,0,0,0,0,0,0,0.0313,0.0313,0,0.0277,0.0277,0.0276,0.0268,0.0268,0.0268,0.0268,0.0224,0.0222,0.0221,0,0,0,0,0,0,0,0,0,0,0,0,0,0.0338,0.0338,0.0313,0.0313,0.0313,0.0277,0.0277,0.0276,0.0268,0.0268,0.0268,0.0268,0.0224,0.0222,0.0221,0,0,0,0,0,0,0,0,0,0,0,0,0,0.0318,0.0338,0.0314,0.0304,0.0302,0.0277,0.0277,0.0276,0.0267,0.0268,0.0268,0.0268,0.0225,0.0223,0.022,0.0201,0,0,0.0214,0.0213,0,0,0,0,0,0,0,0,0.0319,0.0317,0.0306,0.0304,0.0303,0.0277,0.0269,0.0251,0.0267,0.0281,0.0268,0.0269,0.024,0.0237,0.023,0.0199,0.0197,0.0214,0.0213,0.0212,0.0211,0,0,0,0,0,0,0,0.0321,0.0318,0.0299,0.0305,0.0303,0.0288,0.0286,0.0265,0.0259,0.028,0.0279,0.0274,0.0239,0.0232,0.0229,0.0197,0.0214,0.0212,0.0211,0.021,0.0169,0.0169,0,0,0,0,0,0,0.0326,0.032,0.0301,0.0298,0.0311,0.0288,0.0285,0.0285,0.026,0.0256,0.0274,0.0274,0.0235,0.0231,0.0227,0.0228,0.0212,0.021,0.0209,0.0169,0.0169,0.0169,0,0,0,0,0,0,0.0327,0.0325,0.0302,0.0308,0.0304,0.0287,0.0287,0.0284,0.0284,0.0255,0.0252,0.0278,0.0235,0.023,0.022,0.0225,0.0209,0.0207,0.0168,0.0169,0.0169,0.0213,0,0,0,0,0,0,0.0328,0.0325,0.0331,0.0308,0.0304,0.0295,0.0287,0.0283,0.028,0.028,0.0257,0.0253,0.0235,0.0223,0.0218,0.0222,0.0205,0.0168,0.0168,0.0169,0.0211,0.0215,0.0218,0,0,0,0,0,0.0329,0.0334,0.0331,0.0329,0.031,0.0295,0.0292,0.0281,0.028,0.0282,0.0269,0.0254,0.0221,0.0221,0.0215,0.0219,0.0168,0.0168,0.0169,0.021,0.0214,0.0218,0,0,0,0,0,0,0.0346,0.0332,0.0329,0.033,0.0318,0.0294,0.0294,0.0286,0.0277,0.028,0.0255,0.025,0.0243,0.0224,0.0225,0.0207,0.0192,0.0191,0.0225,0.0229,0.0232,0.0246,0.0204,0,0,0,0,0,0.0352,0.0355,0.0337,0.0338,0.0334,0.0316,0.031,0.0303,0.0289,0.0286,0.027,0.0253,0.0237,0.0229,0.0211,0.0201,0.0176,0.0199,0.0202,0.0205,0.0212,0.0177,0.0178,0.017,0.017,0.017,0,0,0.0358,0.0352,0.0353,0.0343,0.0333,0.0334,0.0314,0.0309,0.0313,0.0281,0.0284,0.0263,0.0237,0.0228,0.0223,0.0214,0.0193,0.0205,0.0208,0.0213,0.0178,0.0179,0.0179,0.017,0.017,0.017,0,0,0.037,0.0369,0.0375,0.0369,0.0359,0.035,0.0352,0.0334,0.0331,0.0324,0.0306,0.029,0.0265,0.0249,0.0236,0.0244,0.0211,0.0238,0.0264,0.0231,0.0232,0.0232,0.0198,0.0195,0.0239,0.0239,0.0239,0,0.038,0.0387,0.0373,0.0378,0.0382,0.0362,0.0372,0.0362,0.0345,0.0345,0.0333,0.0299,0.0275,0.0264,0.0268,0.0252,0.0228,0.0254,0.0236,0.0235,0.0235,0.02,0.0196,0.0241,0.0241,0.0241,0.024,0,0.0392,0.0404,0.0407,0.0413,0.0414,0.0418,0.0407,0.0408,0.0401,0.0389,0.0377,0.0341,0.0323,0.0308,0.0291,0.0278,0.026,0.0244,0.0228,0.0238,0.0201,0.0196,0.0244,0.0243,0.0243,0.0242,0,0,0.0402,0.0415,0.0419,0.0437,0.0436,0.0442,0.0449,0.0451,0.0465,0.0435,0.0442,0.0403,0.0383,0.0368,0.0338,0.0306,0.0277,0.0279,0.0276,0.025,0.0203,0.0188,0.018,0.0258,0.0258,0.0257,0.0178,0,0.042,0.0447,0.0447,0.0481,0.0497,0.0492,0.0505,0.0505,0.0498,0.0499,0.0454,0.0448,0.0405,0.0401,0.0362,0.0303,0.0267,0.03,0.0194,0.0191,0.018,0.0175,0.0256,0.0174,0.0173,0.0172,0.0172,0,0.0433,0.0454,0.0492,0.0529,0.0537,0.0557,0.0587,0.0596,0.0586,0.0579,0.0556,0.0521,0.0477,0.0439,0.0334,0.0358,0.0288,0.0233,0.0228,0.0197,0.0167,0.0162,0.0162,0.0163,0.0163,0.0164,0.0165,0,0.0454,0.0488,0.0528,0.0539,0.0572,0.0597,0.0617,0.0624,0.0646,0.0636,0.0644,0.0579,0.0556,0.0457,0.0342,0.0339,0.0221,0.0199,0.0115,0.0113,0.0131,0.0132,0.0122,0.0122,0.0123,0.0123,0.0123,0,0.0473,0.0506,0.0547,0.0571,0.0628,0.0637,0.0694,0.0702,0.072,0.0752,0.0694,0.0693,0.056,0.0476,0.0361,0.0225,0.0231,0.012,0.0092,0.0151,0.0155,0.0127,0.0129,0.012,0.012,0.0121,0.0122,0,0.0487,0.0512,0.0564,0.0618,0.0643,0.0686,0.0755,0.079,0.0801,0.0839,0.0841,0.0779,0.0671,0.0525,0.0365,0.0259,0.0124,0.0074,0.0151,0.0129,0.0031,0.0036,-0.0031,-0.0032,-0.0033,-0.0034,-0.0034,0,0.0494,0.0524,0.0605,0.0647,0.0678,0.0744,0.0793,0.0831,0.0871,0.0891,0.0909,0.0826,0.0762,0.0527,0.0368,0.014,0.0105,0.0027,0.0022,0.0036,0.0016,0.0022,0.0028,-0.0036,-0.0036,-0.0036,-0.0037,0,0.0509,0.0544,0.0591,0.0679,0.0746,0.0818,0.089,0.0925,0.0969,0.0979,0.0962,0.0844,0.0721,0.0533,0.0357,0.0193,0.0072,0.0016,0.0016,0.0011,0.0029,0.0011,0.0018,-0.004,-0.004,-0.0039,-0.0039,0,0.0523,0.0558,0.0627,0.0703,0.0789,0.0868,0.0906,0.0953,0.0994,0.1011,0.1003,0.0874,0.0803,0.056,0.04,0.0235,0.0185,0.0118,0.0112,0.0114,0.0174,0.022,0.0186,0,0,0,0,0,0.0529,0.0572,0.0643,0.0731,0.0817,0.0871,0.096,0.099,0.1033,0.1026,0.1018,0.0903,0.0673,0.0579,0.0411,0.0364,0.0146,0.0158,0.0063,-0.006,-0.0055,-0.0011,0,0,0,0,0,0,0.0533,0.06,0.0638,0.0742,0.0804,0.0904,0.0964,0.0994,0.0991,0.1006,0.0891,0.0843,0.0623,0.0768,0.0403,0.0355,0.0266,0.0057,0.0053,-0.0062,-0.0058,-0.0055,-0.0008,0,0,0,0,0]}]]